Volver al catálogo

ARIANE 1 R/B

ActivoHEO
NORAD 15876·ROCKET BODY·🇫🇷 France

Lanzado Jul 2, 1985 desde Guiana Space Centre

Loading…

Próximos Pases (próximas 24 horas)

TLE

ActualizadoSource: Space-Track

Época: Sep 14, 2026, 03:19 UTC

1 15876U 85056B   26257.13856459  .00000259  00000-0  10872-2 0  9990
2 15876   9.0337  59.1589 6180232 289.0328  16.3312  3.58810644188891

Sigue ARIANE 1 R/B en tiempo real con AllMySat

Download on the App Store